| time (UTC) | temp F | wind direction | speed MPH | gust MPH | rain 1hr in | rain 24hr in | rain mn in | humidity % | barometer mb |
| 20260904141746 | 72 | 250 | 26.0 | 47.0 | 0.00 | 0.00 | 0.00 | 73 | |
| 20260904132011 | 70 | 250 | 33.0 | 52.0 | 0.00 | 0.00 | 0.00 | 77 | |
| 20260904121746 | 70 | 240 | 20.0 | 0.0 | 0.00 | 0.00 | 0.00 | 77 | |
| 20260904111746 | 68 | 260 | 22.0 | 0.0 | 0.00 | 0.00 | 0.00 | 77 | |
| 20260904102205 | 64 | 250 | 20.0 | 0.0 | 0.00 | 0.00 | 0.00 | 88 | |
| 20260904091804 | 63 | 250 | 22.0 | 0.0 | 0.00 | 0.00 | 0.00 | 93 | |
| 20260904081803 | 61 | 250 | 24.0 | 0.0 | 0.00 | 0.00 | 0.00 | 93 | |
| 20260904072018 | 59 | 290 | 24.0 | 0.0 | 0.00 | 0.00 | 0.00 | 93 | |
| 20260904061746 | 57 | 280 | 22.0 | 0.0 | 0.00 | 0.00 | 0.00 | 99 | |
| 20260904051747 | 59 | 270 | 20.0 | 0.0 | 0.00 | 0.00 | 0.00 | 93 | |
| 20260904042149 | 57 | 270 | 20.0 | 0.0 | 0.00 | 0.00 | 0.00 | 99 | |
| 20260904031746 | 57 | 280 | 22.0 | 0.0 | 0.00 | 0.00 | 0.00 | 99 | |
| 20260904021747 | 57 | 280 | 22.0 | 0.0 | 0.00 | 0.00 | 0.00 | 99 | |
| 20260904012049 | 57 | 280 | 22.0 | 0.0 | 0.00 | 0.00 | 0.00 | 99 | |
| 20260904001747 | 57 | 280 | 22.0 | 0.0 | 0.00 | 0.00 | 0.00 | 93 | |
| 20260903231747 | 57 | 280 | 24.0 | 0.0 | 0.00 | 0.00 | 0.00 | 93 | |
| 20260903222148 | 57 | 270 | 22.0 | 0.0 | 0.00 | 0.00 | 0.00 | 93 | |
| 20260903211747 | 57 | 280 | 24.0 | 38.0 | 0.00 | 0.00 | 0.00 | 93 | |
| 20260903201748 | 57 | 280 | 22.0 | 0.0 | 0.00 | 0.00 | 0.00 | 93 | |
| 20260903191947 | 57 | 270 | 22.0 | 0.0 | 0.00 | 0.00 | 0.00 | 93 | |
| 20260903181747 | 57 | 250 | 20.0 | 0.0 | 0.00 | 0.00 | 0.00 | 93 | |
| 20260903171802 | 59 | 270 | 26.0 | 38.0 | 0.00 | 0.00 | 0.00 | 87 | |
| 20260903162104 | 61 | 270 | 22.0 | 33.0 | 0.00 | 0.00 | 0.00 | 77 | |
| 20260903151747 | 63 | 260 | 18.0 | 0.0 | 0.00 | 0.00 | 0.00 | 72 |